Location: Allonne
(49.4086°N, 2.1143°E)
Time: 08:06:20
(UTC+00:00)

Cosmos 2333 Rocket - Pass Details

Date: 03 February 2023
Orbit: 837 x 864 km, 70.8° (Epoch: 23 March)

Event Time Altitude Azimuth Distance (km) Brightness Sun altitude
Rises 18:11:49 0° 176° (S) 3,378 5.4 -13.4°
Reaches altitude 10° 18:14:28 10° 167° (SSE) 2,450 4.6 -13.9°
Maximum altitude 18:19:24 32° 106° (ESE) 1,402 2.9 -14.7°
Enters shadow 18:22:25 20° 58° (ENE) 1,878 3.5 -15.1°
